[[{"header":{"parameterUnit":"m.s-1","parameterCategory":1,"la1":30.2991,"la2":30.254,"lo1":-89.0895,"lo2":-89.0444,"dy":0.0017,"dx":0.0017,"nx":28,"ny":28,"refTime":"2024-04-12T21:00:00:Z","depth":0,"parameterNumber":2,"parameterNumberName":"U-component_of_WINDS"},"data":[0,0,0,0,0,0,0,0,0,0,0,0,0,0,0,0,0,0,0,0,0,0,0,0,0,0,0,0,0,0,0,0,0,0,0,0,0,0,0,0,0,0,0,0,0,0,0,0,0,0,0,0,0,0,0,0,0,0,1.5856,1.5857,0,1.5887,1.5888,1.5888,1.5871,1.587,1.5869,1.5868,1.59,1.5901,1.5903,0,0,0,0,0,0,0,0,0,0,0,0,0,1.5783,1.5784,1.5856,1.5857,1.5857,1.5887,1.5888,1.5888,1.5871,1.587,1.5869,1.5868,1.5899,1.5901,1.5903,0,0,0,0,0,0,0,0,0,0,0,0,0,1.5814,1.5785,1.5856,1.5852,1.5852,1.5887,1.5888,1.5888,1.5871,1.587,1.5869,1.5868,1.5899,1.5901,1.5903,1.5944,0,0,1.5911,1.5912,0,0,0,0,0,0,0,0,1.5813,1.5817,1.5852,1.5853,1.5853,1.5874,1.5873,1.5907,1.5872,1.5864,1.5868,1.5867,1.5892,1.5895,1.5904,1.5945,1.5947,1.5911,1.5913,1.5914,1.5914,0,0,0,0,0,0,0,1.5811,1.5816,1.5869,1.5853,1.5853,1.5849,1.5852,1.588,1.5885,1.5865,1.5863,1.5867,1.5892,1.5901,1.5904,1.5947,1.5911,1.5913,1.5915,1.5916,1.6025,1.6027,0,0,0,0,0,0,1.5809,1.5814,1.5868,1.5869,1.5829,1.5851,1.5855,1.5868,1.5885,1.5886,1.5868,1.5866,1.5898,1.5901,1.5905,1.5955,1.5914,1.5916,1.5917,1.6024,1.6026,1.6027,0,0,0,0,0,0,1.5807,1.5814,1.5866,1.5842,1.5848,1.5854,1.5869,1.587,1.5879,1.5887,1.5888,1.5877,1.5897,1.5902,1.5935,1.5956,1.5917,1.5919,1.6022,1.6025,1.6027,1.6054,0,0,0,0,0,0,1.5805,1.5813,1.5828,1.5842,1.5849,1.5895,1.5871,1.5871,1.5883,1.5881,1.5896,1.5897,1.5896,1.5931,1.5937,1.5958,1.5921,1.602,1.6023,1.6026,1.6051,1.6056,1.6061,0,0,0,0,0,1.5802,1.5834,1.5829,1.5836,1.5868,1.5896,1.5901,1.5899,1.5885,1.5901,1.5906,1.5896,1.5952,1.5935,1.5941,1.5963,1.6019,1.6022,1.6026,1.6048,1.6055,1.6061,0,0,0,0,0,0,1.5822,1.5836,1.583,1.5867,1.5881,1.5893,1.5913,1.5906,1.5924,1.5921,1.5919,1.5922,1.5957,1.5963,1.5944,1.6004,1.5984,1.5988,1.5999,1.6005,1.601,1.6008,1.5923,0,0,0,0,0,1.5831,1.5852,1.5863,1.5895,1.5902,1.5907,1.5919,1.5917,1.593,1.5936,1.5944,1.5958,1.5979,1.5992,1.6012,1.6052,1.6055,1.607,1.6076,1.608,1.6084,1.6107,1.6114,1.6038,1.6038,1.6038,0,0,1.5849,1.5859,1.5873,1.5899,1.5909,1.5932,1.5911,1.5936,1.5953,1.594,1.5971,1.5978,1.5993,1.6031,1.6047,1.6037,1.6106,1.6084,1.6087,1.6089,1.6111,1.6118,1.6124,1.604,1.604,1.604,0,0,1.5894,1.5903,1.5931,1.5942,1.5958,1.5961,1.5968,1.5982,1.5986,1.6018,1.6009,1.603,1.6065,1.6077,1.6088,1.6139,1.6131,1.6145,1.6172,1.6194,1.62,1.6206,1.6225,1.6231,1.6149,1.6149,1.6149,0,1.5914,1.5948,1.5946,1.5972,1.5984,1.5974,1.6003,1.6014,1.6035,1.6044,1.6033,1.6078,1.6088,1.6128,1.6141,1.615,1.6158,1.6143,1.62,1.6205,1.621,1.6228,1.6235,1.6151,1.6151,1.6151,1.615,0,1.5972,1.5996,1.6017,1.6039,1.6053,1.608,1.6084,1.6099,1.6096,1.6101,1.6134,1.6146,1.6168,1.6177,1.6174,1.6218,1.6211,1.62,1.6179,1.6219,1.6236,1.6243,1.6153,1.6153,1.6152,1.6152,0,0,1.6029,1.6051,1.6059,1.6069,1.6087,1.6105,1.6132,1.6155,1.6168,1.6184,1.6207,1.6238,1.6228,1.624,1.6239,1.6259,1.63,1.6245,1.6246,1.6255,1.6349,1.6358,1.6366,1.6295,1.6296,1.6297,1.6348,0,1.6075,1.6122,1.6123,1.6167,1.6189,1.6181,1.6205,1.6219,1.6224,1.6244,1.625,1.6273,1.6257,1.6265,1.6284,1.6291,1.6319,1.6287,1.6317,1.6318,1.6313,1.6374,1.6383,1.6431,1.6355,1.6356,1.6357,0,1.6135,1.6153,1.62,1.6216,1.6225,1.6246,1.6268,1.6287,1.6303,1.6305,1.632,1.6316,1.6345,1.6323,1.6363,1.6341,1.6354,1.6359,1.6361,1.6364,1.6339,1.6379,1.6446,1.6453,1.6367,1.6366,1.6365,0,1.6172,1.6209,1.6241,1.625,1.627,1.6285,1.6294,1.6309,1.6323,1.6341,1.6351,1.6372,1.6384,1.6401,1.6404,1.6388,1.6444,1.6422,1.6447,1.6447,1.6459,1.6458,1.6529,1.6467,1.6467,1.6467,1.6467,0,1.6224,1.6252,1.6259,1.6279,1.6311,1.6312,1.6344,1.6352,1.6365,1.6387,1.6381,1.6402,1.6404,1.6426,1.6428,1.6461,1.6466,1.647,1.647,1.647,1.647,1.6478,1.6475,1.6469,1.6468,1.6468,1.6468,0,1.627,1.6276,1.6311,1.6327,1.6332,1.6355,1.6369,1.6389,1.6394,1.6422,1.6428,1.6437,1.6462,1.6466,1.6496,1.6498,1.6537,1.6534,1.6532,1.6531,1.6556,1.6554,1.6635,1.6646,1.6576,1.6577,1.6578,0,1.6303,1.6325,1.6344,1.6358,1.6368,1.6391,1.6406,1.6408,1.6423,1.6444,1.6462,1.6486,1.6506,1.6547,1.6556,1.6579,1.6577,1.6603,1.658,1.658,1.6578,1.6576,1.6579,1.6608,1.6608,1.6609,1.6609,0,1.636,1.6362,1.6383,1.6406,1.6424,1.6441,1.6458,1.647,1.6475,1.6493,1.6519,1.6534,1.6565,1.659,1.6614,1.6623,1.6617,1.6617,1.6624,1.6624,1.6623,1.6625,1.6544,1.6615,1.6614,1.6614,1.6614,1.6613,1.6401,1.6421,1.6438,1.6462,1.6475,1.6491,1.6511,1.6519,1.6541,1.6567,1.6567,1.6596,1.6612,1.6643,1.6654,1.6677,1.6669,1.6679,1.6681,1.6684,1.6686,1.6619,1.6681,1.6681,1.6681,1.6681,1.6681,0,1.6458,1.6469,1.6491,1.6516,1.6535,1.6529,1.6548,1.6564,1.659,1.6606,1.6626,1.6657,1.6682,1.6693,1.6718,1.6734,1.6732,1.674,1.6739,1.6742,1.6692,1.6684,1.6741,1.6741,1.6741,1.6741,1.6741,1.6741,1.649,1.6524,1.6528,1.6569,1.6579,1.6608,1.6619,1.6634,1.6648,1.6682,1.6703,1.6711,1.6725,1.6751,1.6774,1.6777,1.6786,1.6796,1.6797,1.6751,1.6745,1.6739,1.6731,1.6798,1.6798,1.6845,1.6845,1.6846]},{"header":{"parameterUnit":"m.s-1","parameterCategory":1,"la1":30.2991,"la2":30.254,"lo1":-89.0895,"lo2":-89.0444,"dy":0.0017,"dx":0.0017,"nx":28,"ny":28,"refTime":"2024-04-12T21:00:00:Z","depth":0,"parameterNumber":3,"parameterNumberName":"V-component_of_WINDS"},"data":[0,0,0,0,0,0,0,0,0,0,0,0,0,0,0,0,0,0,0,0,0,0,0,0,0,0,0,0,0,0,0,0,0,0,0,0,0,0,0,0,0,0,0,0,0,0,0,0,0,0,0,0,0,0,0,0,0,0,-2.6507,-2.6508,0,-2.6582,-2.6583,-2.6584,-2.6596,-2.6595,-2.6594,-2.6594,-2.6667,-2.667,-2.6672,0,0,0,0,0,0,0,0,0,0,0,0,0,-2.6372,-2.6374,-2.6507,-2.6508,-2.6509,-2.6582,-2.6583,-2.6584,-2.6596,-2.6595,-2.6594,-2.6593,-2.6667,-2.667,-2.6673,0,0,0,0,0,0,0,0,0,0,0,0,0,-2.6437,-2.6375,-2.6507,-2.6523,-2.6526,-2.6582,-2.6583,-2.6585,-2.6596,-2.6595,-2.6594,-2.6593,-2.6666,-2.6669,-2.6673,-2.6717,0,0,-2.6685,-2.6687,0,0,0,0,0,0,0,0,-2.6433,-2.6442,-2.652,-2.6522,-2.6525,-2.6579,-2.6563,-2.6629,-2.6596,-2.6569,-2.6594,-2.6593,-2.6638,-2.6645,-2.6661,-2.672,-2.6724,-2.6685,-2.6688,-2.6689,-2.669,0,0,0,0,0,0,0,-2.6429,-2.6439,-2.6537,-2.6521,-2.6524,-2.6527,-2.6535,-2.6575,-2.6608,-2.6571,-2.6572,-2.6581,-2.664,-2.6657,-2.6663,-2.6725,-2.6685,-2.6689,-2.6691,-2.6693,-2.6827,-2.6828,0,0,0,0,0,0,-2.6421,-2.6435,-2.6534,-2.6539,-2.6476,-2.653,-2.6539,-2.6562,-2.6608,-2.6614,-2.6582,-2.6582,-2.6651,-2.6658,-2.6665,-2.6722,-2.6689,-2.6693,-2.6695,-2.6826,-2.6827,-2.6829,0,0,0,0,0,0,-2.6418,-2.643,-2.6531,-2.6487,-2.65,-2.6533,-2.6559,-2.6564,-2.6582,-2.6616,-2.6622,-2.6594,-2.665,-2.666,-2.6705,-2.6724,-2.6695,-2.6698,-2.6824,-2.6826,-2.6828,-2.6834,0,0,0,0,0,0,-2.6414,-2.6429,-2.6446,-2.6488,-2.6503,-2.657,-2.6561,-2.6567,-2.6589,-2.6589,-2.6629,-2.6634,-2.665,-2.6699,-2.6709,-2.6729,-2.6701,-2.6823,-2.6825,-2.6828,-2.6832,-2.6835,-2.6838,0,0,0,0,0,-2.641,-2.6443,-2.6447,-2.6459,-2.6525,-2.6571,-2.658,-2.6598,-2.659,-2.6608,-2.6631,-2.6633,-2.6721,-2.6704,-2.6715,-2.6736,-2.6822,-2.6825,-2.6827,-2.683,-2.6835,-2.6838,0,0,0,0,0,0,-2.6401,-2.6449,-2.6453,-2.6501,-2.6532,-2.6573,-2.6595,-2.6602,-2.6635,-2.6633,-2.6654,-2.6663,-2.6708,-2.6726,-2.6707,-2.6783,-2.677,-2.6776,-2.6769,-2.6773,-2.6777,-2.6771,-2.6704,0,0,0,0,0,-2.6405,-2.6439,-2.6479,-2.6517,-2.6533,-2.6562,-2.6582,-2.6595,-2.6627,-2.664,-2.6665,-2.6696,-2.6731,-2.6753,-2.6786,-2.6835,-2.6844,-2.6855,-2.6858,-2.6861,-2.6865,-2.6895,-2.6901,-2.6838,-2.6838,-2.6838,0,0,-2.6412,-2.6443,-2.6463,-2.6516,-2.6542,-2.6577,-2.6572,-2.6609,-2.6635,-2.6645,-2.669,-2.671,-2.6746,-2.6794,-2.6816,-2.681,-2.6885,-2.6865,-2.6866,-2.6869,-2.6898,-2.6904,-2.6909,-2.684,-2.684,-2.6839,0,0,-2.6445,-2.6471,-2.6508,-2.6534,-2.6574,-2.6593,-2.6602,-2.6643,-2.6657,-2.6703,-2.6712,-2.6743,-2.6802,-2.6828,-2.6849,-2.6895,-2.6899,-2.6905,-2.6922,-2.6951,-2.6956,-2.696,-2.6979,-2.6985,-2.6909,-2.6909,-2.6909,0,-2.645,-2.6504,-2.6525,-2.6563,-2.6587,-2.6599,-2.6637,-2.6661,-2.6708,-2.6725,-2.6718,-2.6795,-2.6819,-2.6875,-2.6886,-2.6902,-2.6914,-2.6901,-2.6954,-2.6958,-2.6963,-2.6981,-2.6987,-2.691,-2.691,-2.691,-2.691,0,-2.6509,-2.6546,-2.6571,-2.662,-2.6646,-2.6683,-2.671,-2.6734,-2.6745,-2.6765,-2.6813,-2.6844,-2.6885,-2.6899,-2.6908,-2.6956,-2.6952,-2.6949,-2.6938,-2.6969,-2.6986,-2.6993,-2.6911,-2.691,-2.691,-2.691,0,0,-2.6536,-2.6599,-2.6607,-2.6631,-2.6677,-2.6706,-2.6745,-2.6787,-2.6808,-2.6841,-2.6875,-2.6926,-2.6925,-2.6949,-2.6961,-2.6986,-2.7024,-2.6981,-2.6982,-2.6989,-2.7081,-2.7084,-2.7091,-2.7027,-2.7028,-2.7029,-2.7079,0,-2.6576,-2.6646,-2.6668,-2.6726,-2.6763,-2.6776,-2.681,-2.6842,-2.6862,-2.6896,-2.6918,-2.6955,-2.6949,-2.6964,-2.699,-2.7014,-2.7043,-2.701,-2.7059,-2.706,-2.705,-2.71,-2.7102,-2.7147,-2.7085,-2.7086,-2.7087,0,-2.663,-2.6668,-2.6731,-2.6775,-2.6791,-2.6821,-2.6863,-2.6895,-2.6932,-2.6945,-2.6974,-2.6985,-2.7026,-2.7012,-2.707,-2.7048,-2.7069,-2.7084,-2.7086,-2.7092,-2.7076,-2.7108,-2.7161,-2.7169,-2.7097,-2.7097,-2.7096,0,-2.6647,-2.6712,-2.6759,-2.6779,-2.6831,-2.6852,-2.6875,-2.6911,-2.6936,-2.6973,-2.699,-2.7029,-2.7052,-2.7082,-2.7105,-2.7092,-2.7162,-2.7149,-2.7174,-2.7174,-2.7188,-2.7187,-2.7247,-2.72,-2.72,-2.72,-2.72,0,-2.6689,-2.6728,-2.6768,-2.6797,-2.6841,-2.6866,-2.6908,-2.6932,-2.6964,-2.6998,-2.7012,-2.7043,-2.707,-2.7105,-2.7123,-2.7169,-2.7179,-2.7191,-2.7195,-2.7191,-2.7189,-2.7205,-2.7203,-2.7202,-2.7201,-2.7201,-2.7201,0,-2.6714,-2.6743,-2.6796,-2.6842,-2.6855,-2.6885,-2.6925,-2.6954,-2.6976,-2.7019,-2.703,-2.7065,-2.7107,-2.7133,-2.7185,-2.7198,-2.725,-2.7252,-2.7238,-2.724,-2.7265,-2.7263,-2.7338,-2.735,-2.7293,-2.7294,-2.7294,0,-2.674,-2.6771,-2.6821,-2.6846,-2.687,-2.6909,-2.6936,-2.6961,-2.6989,-2.7035,-2.7059,-2.7103,-2.7139,-2.7206,-2.7236,-2.7277,-2.7281,-2.7305,-2.7287,-2.7283,-2.7284,-2.7282,-2.7286,-2.7308,-2.7308,-2.7309,-2.7309,0,-2.6783,-2.6797,-2.6835,-2.688,-2.6912,-2.6947,-2.6983,-2.7002,-2.7034,-2.7064,-2.7109,-2.7138,-2.7194,-2.7237,-2.7282,-2.7305,-2.7313,-2.7315,-2.7323,-2.7319,-2.731,-2.7317,-2.7247,-2.7313,-2.7312,-2.7312,-2.7312,-2.7312,-2.6811,-2.684,-2.6881,-2.6924,-2.6954,-2.6988,-2.7019,-2.7046,-2.7084,-2.7133,-2.7146,-2.7194,-2.7232,-2.7293,-2.7317,-2.7355,-2.7351,-2.7363,-2.7366,-2.7369,-2.7371,-2.7304,-2.7363,-2.7363,-2.7363,-2.7363,-2.7362,0,-2.6856,-2.6884,-2.6924,-2.6975,-2.7009,-2.7016,-2.7056,-2.7084,-2.7127,-2.7163,-2.72,-2.7252,-2.7296,-2.733,-2.7374,-2.7398,-2.7403,-2.7409,-2.7408,-2.7414,-2.737,-2.736,-2.7405,-2.7405,-2.7405,-2.7405,-2.7405,-2.7405,-2.6884,-2.6934,-2.6953,-2.7019,-2.7046,-2.7095,-2.7118,-2.7149,-2.7179,-2.7238,-2.7275,-2.7297,-2.7333,-2.7381,-2.7421,-2.743,-2.7447,-2.7452,-2.7462,-2.7421,-2.7416,-2.7412,-2.7402,-2.7455,-2.7455,-2.7503,-2.7503,-2.7503]}]]